Weather History for South Haven, MI

Change the Weather History Date:

Wednesday, October 9, 2013

  Actual Average (KBIV) Record (KBIV)
Temperature  
Mean Temperature 55 °F 55 °F  
Max Temperature 70 °F 64 °F 84 °F (2010)
Min Temperature 40 °F 45 °F 25 °F (1989)
Degree Days  
Heating Degree Days 10 11  
Month to date heating degree days 86  
Since 1 July heating degree days 216  
Cooling Degree Days 0 1  
Month to date cooling degree days 9  
Year to date cooling degree days 691  
Growing Degree Days 5 (Base 50)    
Moisture  
Dew Point 44 °F    
Average Humidity 68    
Maximum Humidity 97    
Minimum Humidity 34    
Precipitation  
Precipitation 0.00 in 0.11 in 2.37 in (1958)
Month to date precipitation 0.88  
Year to date precipitation 27.99  
Sea Level Pressure  
Sea Level Pressure 30.23 in    
Wind  
Wind Speed 3 mph (SE)    
Max Wind Speed 9 mph    
Max Gust Speed -    
Visibility 10 miles    
Events      
T = Trace of Precipitation, MM = Missing Value Source: NWS Daily Summary

Daily Weather History Graph

Daily Weather History Graph

Search for Another Location

Airport:

Trip Planner

Search our weather history database for the weather conditions in past years. The results will help you decide how hot, cold, wet, or windy it might be!

Date:

Astronomy

Oct. 09, 2013 Rise Set
Actual Time 7:51 AM EDT 7:12 PM EDT
Civil Twilight 7:23 AM EDT 7:40 PM EDT
Nautical Twilight 6:50 AM EDT 8:12 PM EDT
Astronomical Twilight 6:17 AM EDT 8:45 PM EDT
Moon 12:50 PM EDT (10/9) 10:41 PM EDT (10/9)
Length of Visible Light 12h 17m
Length of Day
11h 21m
Waxing Crescent, 25% of the Moon is Illuminated
Oct 9
Waxing Crescent
Oct 11
First Quarter
Oct 18
Full
Oct 26
Last Quarter
Nov 3
New

Hourly Weather History & Observations

Time (EDT) Temp. Windchill Dew Point Humidity Pressure Visibility Wind Dir Wind Speed Gust Speed Precip Events Conditions
12:15 AM 56.3 °F - 46.9 °F 71% 30.21 in 10.0 mi SE 3.5 mph - N/A   Clear
12:35 AM 55.4 °F - 46.6 °F 72% 30.21 in 10.0 mi SE 3.5 mph - N/A   Clear
12:55 AM 55.4 °F - 46.4 °F 72% 30.21 in 10.0 mi SE 4.6 mph - N/A   Clear
1:15 AM 55.2 °F - 45.7 °F 70% 30.21 in 10.0 mi SE 4.6 mph - N/A   Clear
1:35 AM 54.7 °F - 45.5 °F 71% 30.21 in 10.0 mi SE 3.5 mph - N/A   Clear
1:55 AM 54.0 °F - 45.0 °F 72% 30.21 in 10.0 mi SE 3.5 mph - N/A   Clear
2:15 AM 53.6 °F - 44.8 °F 72% 30.21 in 10.0 mi SE 3.5 mph - N/A   Clear
2:35 AM 52.7 °F - 44.6 °F 74% 30.21 in 10.0 mi SE 3.5 mph - N/A   Clear
2:55 AM 52.7 °F - 44.1 °F 72% 30.21 in 10.0 mi SE 4.6 mph - N/A   Clear
3:15 AM 52.7 °F - 43.7 °F 71% 30.22 in 10.0 mi SE 4.6 mph - N/A   Clear
3:35 AM 52.5 °F - 42.8 °F 70% 30.22 in 10.0 mi SE 4.6 mph - N/A   Clear
3:55 AM 52.0 °F - 42.6 °F 70% 30.22 in 10.0 mi SE 3.5 mph - N/A   Clear
4:15 AM 51.3 °F - 42.3 °F 71% 30.22 in 10.0 mi SE 5.8 mph - N/A   Clear
4:35 AM 50.4 °F - 42.1 °F 73% 30.22 in 10.0 mi ESE 4.6 mph - N/A   Clear
4:55 AM 49.3 °F - 41.9 °F 76% 30.23 in 10.0 mi ESE 3.5 mph - N/A   Clear
5:15 AM 49.1 °F - 42.1 °F 77% 30.24 in 10.0 mi Calm Calm - N/A   Clear
5:35 AM 45.5 °F - 42.6 °F 90% 30.24 in 10.0 mi Calm Calm - N/A   Clear
5:55 AM 45.5 °F - 41.7 °F 87% 30.24 in 10.0 mi Calm Calm - N/A   Clear
6:14 AM 43.9 °F - 41.5 °F 91% 30.25 in 10.0 mi Calm Calm - N/A   Clear
6:35 AM 43.0 °F - 41.0 °F 93% 30.26 in 10.0 mi Calm Calm - N/A   Clear
6:55 AM 42.8 °F - 41.4 °F 95% 30.26 in 10.0 mi Calm Calm - N/A   Clear
7:14 AM 42.6 °F - 41.4 °F 95% 30.27 in 10.0 mi Calm Calm - N/A   Clear
7:35 AM 41.9 °F - 40.8 °F 96% 30.27 in 10.0 mi Calm Calm - N/A   Clear
7:55 AM 41.9 °F - 41.0 °F 97% 30.27 in 10.0 mi Calm Calm - N/A   Clear
8:14 AM 40.6 °F - 39.6 °F 96% 30.27 in 10.0 mi Calm Calm - N/A   Clear
8:35 AM 42.4 °F - 41.4 °F 96% 30.28 in 10.0 mi Calm Calm - N/A   Clear
8:55 AM 46.8 °F - 44.6 °F 92% 30.28 in 10.0 mi Calm Calm - N/A   Clear
9:15 AM 49.8 °F - 45.3 °F 84% 30.29 in 10.0 mi Calm Calm - N/A   Clear
9:35 AM 52.7 °F - 45.1 °F 75% 30.29 in 10.0 mi Calm Calm - N/A   Clear
9:55 AM 55.0 °F - 45.5 °F 70% 30.29 in 10.0 mi Calm Calm - N/A   Clear
10:15 AM 57.0 °F - 46.9 °F 69% 30.29 in 10.0 mi South 3.5 mph - N/A   Clear
10:35 AM 59.0 °F - 46.9 °F 64% 30.29 in 10.0 mi South 4.6 mph - N/A   Clear
10:55 AM 61.0 °F - 48.0 °F 62% 30.28 in 10.0 mi SSE 3.5 mph - N/A   Clear
11:15 AM 62.1 °F - 47.7 °F 59% 30.28 in 10.0 mi Calm Calm - N/A   Clear
11:35 AM 63.7 °F - 47.3 °F 55% 30.28 in 10.0 mi South 5.8 mph - N/A   Clear
12:15 PM 65.5 °F - 46.0 °F 49% 30.27 in 10.0 mi South 4.6 mph - N/A   Clear
12:35 PM 65.8 °F - 44.2 °F 46% 30.27 in 10.0 mi South 9.2 mph - N/A   Clear
12:55 PM 66.4 °F - 45.3 °F 47% 30.27 in 10.0 mi SE 5.8 mph - N/A   Clear
1:15 PM 67.1 °F - 45.9 °F 46% 30.27 in 10.0 mi SE 5.8 mph - N/A   Clear
1:35 PM 68.0 °F - 46.4 °F 46% 30.26 in 10.0 mi South 4.6 mph - N/A   Clear
1:55 PM 68.2 °F - 44.4 °F 42% 30.24 in 10.0 mi Calm Calm - N/A   Clear
2:15 PM 68.9 °F - 43.9 °F 40% 30.24 in 10.0 mi ESE 5.8 mph - N/A   Clear
2:35 PM 69.1 °F - 43.5 °F 40% 30.23 in 10.0 mi SSE 5.8 mph - N/A   Clear
2:55 PM 70.2 °F - 43.3 °F 38% 30.22 in 10.0 mi SE 5.8 mph - N/A   Clear
3:15 PM 70.7 °F - 42.1 °F 35% 30.22 in 10.0 mi ENE 3.5 mph - N/A   Clear
3:35 PM 70.9 °F - 42.1 °F 35% 30.21 in 10.0 mi SE 6.9 mph - N/A   Clear
3:55 PM 70.7 °F - 41.0 °F 34% 30.21 in 10.0 mi Calm Calm - N/A   Clear
4:15 PM 69.8 °F - 43.0 °F 38% 30.21 in 10.0 mi ESE 6.9 mph - N/A   Clear
4:34 PM 70.2 °F - 45.0 °F 40% 30.20 in 10.0 mi SE 6.9 mph - N/A   Clear
4:55 PM 70.9 °F - 42.3 °F 36% 30.19 in 10.0 mi ESE 3.5 mph - N/A   Clear
5:15 PM 70.7 °F - 40.8 °F 34% 30.19 in 10.0 mi SE 6.9 mph - N/A   Clear
5:34 PM 70.7 °F - 40.6 °F 34% 30.19 in 10.0 mi ESE 3.5 mph - N/A   Clear
5:55 PM 70.3 °F - 41.4 °F 35% 30.18 in 10.0 mi Calm Calm - N/A   Clear
6:15 PM 69.3 °F - 41.4 °F 36% 30.18 in 10.0 mi Calm Calm - N/A   Clear
6:34 PM 67.8 °F - 43.2 °F 41% 30.18 in 10.0 mi Calm Calm - N/A   Clear
6:55 PM 65.7 °F - 44.1 °F 46% 30.18 in 10.0 mi Calm Calm - N/A   Clear
7:15 PM 59.9 °F - 48.4 °F 66% 30.18 in 10.0 mi Calm Calm - N/A   Clear
7:35 PM 54.9 °F - 48.2 °F 78% 30.18 in 10.0 mi Calm Calm - N/A   Clear
7:55 PM 54.5 °F - 49.1 °F 82% 30.18 in 10.0 mi Calm Calm - N/A   Clear
8:15 PM 52.0 °F - 47.8 °F 86% 30.18 in 10.0 mi Calm Calm - N/A   Clear
8:35 PM 50.2 °F - 46.8 °F 88% 30.18 in 10.0 mi Calm Calm - N/A   Clear
8:55 PM 51.1 °F - 46.2 °F 83% 30.18 in 10.0 mi Calm Calm - N/A   Clear
9:15 PM 50.4 °F - 47.5 °F 90% 30.18 in 10.0 mi Calm Calm - N/A   Clear
9:35 PM 50.4 °F - 47.1 °F 89% 30.19 in 10.0 mi Calm Calm - N/A   Clear
9:55 PM 49.5 °F - 46.6 °F 90% 30.19 in 10.0 mi Calm Calm - N/A   Clear
10:15 PM 49.1 °F - 46.4 °F 90% 30.19 in 10.0 mi Calm Calm - N/A   Clear
10:35 PM 47.5 °F - 45.1 °F 92% 30.19 in 10.0 mi East 3.5 mph - N/A   Clear
10:55 PM 46.4 °F 44.3 °F 44.2 °F 92% 30.20 in 10.0 mi ESE 4.6 mph - N/A   Clear
11:15 PM 51.8 °F - 45.0 °F 77% 30.20 in 10.0 mi ESE 5.8 mph - N/A   Clear
11:35 PM 52.2 °F - 44.8 °F 76% 30.20 in 10.0 mi Calm Calm - N/A   Clear
11:55 PM 47.8 °F - 43.9 °F 86% 30.20 in 10.0 mi Calm Calm - N/A   Clear